Temp
95 88 84 90 92 90 86 84 82 87 91 87 86 87 92 97 97 93 94 96 96 96 99 99 99 99 98 98 95 93 92 91 92 87 83 81 77 75 73 75 80 89 85 83
90 84 92 95 91 87 86 83 83 88 91 89 88 87 92 96 95 97 96 96 97 98 98 97 97 96 98 96 94 92 91 90 90 91 84 87 87 78 75 76 78 89 87 87
85 90 92 90 88 85 86 83 84 82 88 92 88 85 88 95 95 97 99 100 100 98 98 97 95 94 97 96 94 92 90 89 89 91 89 84 83 80 77 76 77 88 89 89
88 94 90 87 85 88 81 91 87 84 83 76 90 74 86 90 91 95 98 101 101 100 99 100 99 95 96 96 96 93 91 89 89 89 89 81 79 77 82 80 76 87 90 90
85 86 85 84 86 91 84 91 85 84 83 82 83 81 86 91 88 92 96 97 100 102 101 100 99 99 98 98 97 94 91 87 87 86 84 83 79 79 81 80 79 86 88 89
89 95 90 89 92 90 92 87 86 87 84 73 83 82 82 86 88 91 95 97 98 101 102 101 101 101 99 100 98 95 90 88 88 85 85 85 81 79 76 77 79 87 87 89
87 88 94 93 87 92 89 84 72 71 72 71 86 81 83 91 94 94 94 97 98 100 101 100 99 99 97 98 95 95 90 86 87 87 86 85 83 81 78 77 83 87 89 89
80 78 88 93 89 85 87 86 75 64 69 73 85 76 81 94 98 98 99 99 99 99 101 100 99 99 98 97 95 94 89 86 87 87 86 86 84 79 80 82 84 92 90 86
80 79 92 91 93 91 86 80 90 81 83 75 80 84 92 95 95 96 97 98 97 98 100 100 101 100 98 95 94 93 89 87 87 88 86 85 84 83 81 85 85 93 90 84
86 75 90 91 92 93 89 93 79 81 65 64 75 74 81 85 89 93 94 94 96 98 99 100 101 99 98 97 96 94 92 88 88 89 88 88 86 85 83 83 86 89 89 82
89 84 82 89 84 84 86 83 84 84 80 70 68 72 88 85 90 90 93 93 94 97 99 100 100 99 97 98 97 95 92 88 88 88 87 87 88 87 85 84 85 89 90 89
89 83 75 81 91 94 91 84 85 75 72 78 76 75 96 93 94 93 91 91 93 94 95 100 101 100 98 95 95 96 92 90 90 89 88 88 88 88 88 83 88 89 88 89
86 78 71 75 86 90 83 85 87 86 85 74 72 76 90 94 92 91 90 90 91 91 94 96 99 98 97 96 94 95 94 91 91 90 89 89 88 87 87 88 88 89 87 86
79 79 74 70 75 82 77 81 83 83 75 76 77 79 87 87 80 84 87 88 90 90 91 92 96 97 96 95 93 92 94 93 91 91 89 87 87 87 88 88 88 88 86 85
83 72 77 79 81 81 79 78 79 77 78 73 78 79 85 89 88 87 87 86 86 87 89 90 92 95 94 92 92 91 93 93 91 87 86 84 86 87 86 86 86 88 86 86
83 71 74 71 78 78 75 79 79 79 79 79 80 78 89 91 91 87 86 83 83 84 86 88 89 90 93 93 90 90 90 92 91 88 86 86 85 86 85 86 85 86 86 84
77 75 70 65 75 74 68 75 78 79 82 81 74 81 87 85 85 84 83 81 81 81 83 85 88 90 92 96 93 90 89 92 89 88 87 86 85 84 84 85 85 84 85 83
75 71 71 65 68 56 75 83 79 77 79 82 81 81 81 81 84 85 85 80 81 82 82 83 87 90 89 97 99 93 92 88 88 86 86 86 85 84 84 84 84 84 85 84
81 74 66 62 63 70 75 78 76 73 72 77 75 77 79 81 82 82 84 83 82 83 85 84 87 89 89 91 95 93 89 89 88 86 86 86 83 84 83 83 83 84 84 84
78 77 68 65 58 56 72 77 80 78 65 75 75 75 75 77 71 74 79 84 84 85 85 86 86 89 90 92 92 91 88 87 85 86 86 86 86 84 83 83 82 84 84 83
68 66 63 65 61 67 76 77 79 60 63 73 75 74 74 72 75 79 83 83 85 84 84 86 88 88 88 90 92 90 87 85 87 88 87 86 84 85 85 83 83 82 79 79
64 63 64 66 60 57 75 75 65 70 75 75 74 75 74 75 78 79 80 81 83 83 83 85 86 86 88 87 90 88 86 88 87 86 86 84 82 83 87 82 77 77 76 79
61 67 62 63 65 74 77 74 77 78 73 74 74 76 76 75 76 78 78 80 81 83 83 84 85 85 86 86 80 86 87 88 87 83 84 81 81 86 85 81 79 77 76 77
70 72 65 62 68 70 73 75 74 72 71 76 77 77 76 74 76 77 78 80 81 83 82 83 83 84 83 84 83 79 88 88 86 81 81 82 84 84 84 84 83 82 78 77
71 68 62 62 64 67 70 71 72 72 70 73 74 72 73 75 76 77 77 78 80 81 83 82 81 82 81 84 82 81 79 82 83 82 84 84 86 84 84 84 82 81 83 80
66 60 54 53 64 59 60 71 72 71 67 68 70 68 71 72 73 77 76 79 80 80 81 80 80 80 82 82 79 72 74 81 78 77 77 80 88 86 86 85 78 52 54 50
MSLP
1003.31 1002.85 1001.97 1001.30 1001.03 1001.62 1002.12 1001.82 1001.29 1001.17 1001.28 1001.46 1000.76 1000.23 999.60 999.35 999.34 1000.23 1000.65 1000.75 1001.52 1002.37 1003.10 1004.15 1005.16 1005.81 1006.63 1007.22 1008.29 1009.35 1009.88 1010.68 1011.25 1012.45 1013.20 1013.60 1014.32 1014.74 1014.96 1014.97 1014.93 1014.50 1015.12 1015.61
1002.91 1002.17 1002.02 1001.67 1001.96 1002.47 1002.28 1001.71 1001.22 1000.99 1001.06 1001.02 1000.05 999.38 998.67 998.37 998.71 998.90 999.48 1000.00 1000.38 1001.05 1002.06 1003.35 1004.51 1005.47 1006.12 1006.98 1008.03 1009.08 1009.86 1010.60 1011.30 1011.51 1012.00 1012.74 1012.82 1014.06 1014.30 1014.82 1014.93 1014.23 1014.74 1015.05
1002.26 1001.48 1002.12 1002.17 1001.83 1002.08 1001.84 1001.44 1001.02 1001.05 1001.20 1000.19 999.20 998.32 997.79 997.48 998.34 998.54 998.58 998.95 999.41 1000.08 1000.98 1002.37 1003.86 1004.90 1005.62 1006.48 1007.62 1008.69 1009.65 1010.38 1011.10 1011.00 1011.49 1012.63 1013.14 1013.87 1014.21 1014.39 1014.50 1014.10 1014.20 1014.62
1002.08 1001.81 1001.91 1002.07 1002.01 1001.87 1001.13 1000.82 1001.12 1001.42 1000.85 999.71 999.24 997.77 996.77 997.29 997.62 997.39 997.55 997.51 998.16 999.18 1000.44 1001.24 1002.50 1004.10 1005.09 1005.94 1007.10 1008.13 1009.29 1010.09 1010.86 1011.24 1011.05 1012.05 1012.63 1013.18 1013.23 1013.63 1013.69 1013.60 1013.80 1014.17
1001.42 1001.77 1001.84 1001.74 1001.55 1001.43 1001.21 1001.00 1001.61 1001.47 1000.58 999.71 998.28 996.98 996.26 996.77 996.79 996.97 997.27 997.77 997.77 998.22 999.40 1000.52 1001.62 1002.93 1004.23 1005.24 1006.32 1007.72 1008.92 1010.12 1010.66 1011.12 1011.41 1011.48 1012.48 1012.84 1013.06 1013.36 1013.47 1013.12 1013.81 1014.03
1001.84 1001.66 1001.93 1001.59 1001.30 1001.44 1001.58 1001.30 1001.34 1000.59 999.66 998.38 996.96 997.30 996.25 996.08 996.64 997.27 997.22 997.61 997.96 998.19 998.98 1000.16 1001.25 1002.37 1003.50 1004.49 1005.78 1007.02 1008.46 1009.39 1010.11 1010.91 1011.30 1011.35 1012.10 1012.50 1012.84 1013.01 1013.19 1013.02 1013.69 1014.01
1000.92 1000.80 1000.85 1001.45 1001.04 1000.96 1001.15 1000.79 999.84 998.50 997.77 996.94 996.53 996.82 996.14 996.45 996.72 997.26 997.31 997.40 998.02 998.39 998.91 999.86 1000.75 1001.80 1003.21 1004.09 1005.50 1006.47 1007.86 1009.01 1009.76 1010.40 1010.81 1011.18 1011.75 1012.13 1012.46 1012.64 1012.72 1012.54 1012.78 1013.28
999.85 998.84 999.83 1000.19 1000.54 1000.02 999.49 999.70 999.06 997.99 997.30 996.73 996.75 996.24 996.37 996.86 997.02 997.33 997.21 997.61 998.05 998.44 998.83 999.70 1000.64 1001.64 1002.80 1004.00 1005.27 1006.27 1007.48 1008.72 1009.33 1009.91 1010.46 1010.95 1011.55 1012.21 1012.39 1012.38 1012.09 1011.89 1012.08 1012.71
1000.02 999.68 999.99 1000.61 1000.42 1000.48 999.42 999.40 999.23 998.49 997.97 997.37 996.48 996.12 995.90 996.75 996.74 997.29 997.30 997.74 998.15 998.52 998.75 999.61 1000.34 1001.35 1002.53 1003.90 1005.00 1005.92 1007.21 1008.26 1008.86 1009.39 1010.14 1010.67 1011.32 1011.86 1012.23 1012.08 1012.12 1011.76 1012.08 1012.70
1001.08 1000.71 999.98 999.78 1000.55 1000.29 1000.01 999.51 999.06 998.42 998.16 997.38 996.53 997.33 995.99 996.33 996.87 997.42 997.79 998.89 998.54 998.82 998.99 999.43 1000.09 1001.15 1002.31 1003.58 1004.60 1005.66 1006.73 1007.79 1008.54 1008.96 1009.72 1010.19 1010.80 1011.43 1012.03 1012.19 1011.86 1011.71 1012.06 1012.68
1002.04 1001.30 1000.59 999.96 999.87 999.04 998.87 999.40 999.29 999.19 998.79 997.66 996.89 996.66 997.19 997.66 997.86 998.07 998.52 999.90 999.91 999.30 999.21 999.55 1000.09 1001.07 1002.21 1003.10 1003.93 1005.05 1006.22 1007.47 1008.22 1008.70 1009.22 1009.68 1010.19 1010.88 1011.67 1012.09 1012.07 1011.91 1012.07 1012.55
1002.45 1002.36 1001.03 1000.18 999.60 999.42 999.16 999.33 999.27 998.59 998.32 998.26 997.55 996.69 996.06 997.28 997.72 998.49 999.79 1000.70 1000.97 1000.53 1000.03 999.64 999.97 1000.81 1001.98 1002.91 1003.51 1004.21 1005.60 1006.86 1007.54 1008.07 1008.79 1009.27 1009.86 1010.19 1010.82 1011.64 1011.66 1011.99 1012.22 1012.63
1003.94 1003.29 1001.90 1000.45 999.57 998.87 999.45 999.94 999.65 999.45 998.90 998.14 997.52 996.71 997.52 997.84 998.28 999.75 1000.56 1001.21 1001.48 1001.45 1000.84 1000.42 1000.17 1000.72 1001.57 1002.61 1003.31 1003.78 1004.78 1006.02 1006.82 1007.54 1008.22 1008.78 1009.42 1009.90 1010.20 1010.79 1011.15 1011.67 1012.12 1012.53
1006.13 1004.54 1003.30 1001.89 1000.78 1000.47 1000.44 1000.29 1000.19 999.81 999.24 998.28 997.49 997.38 997.49 998.01 998.85 1000.35 1001.71 1002.29 1002.26 1002.20 1001.85 1001.36 1000.96 1000.91 1001.64 1002.28 1003.20 1003.85 1004.24 1005.26 1006.40 1006.88 1007.55 1008.21 1008.88 1009.38 1009.79 1010.32 1010.84 1011.29 1011.81 1012.42
1005.73 1004.55 1003.85 1002.92 1002.31 1001.85 1001.38 1001.19 1001.00 1000.68 1000.46 999.73 998.72 998.19 997.98 998.14 998.58 1000.52 1001.99 1002.89 1003.03 1003.02 1002.77 1002.50 1001.92 1001.30 1001.63 1002.42 1003.05 1003.86 1004.16 1004.74 1005.86 1006.74 1007.37 1007.91 1008.43 1009.07 1009.67 1010.14 1010.66 1011.03 1011.55 1012.00
1005.42 1004.86 1004.70 1003.89 1003.36 1002.75 1001.92 1001.51 1001.12 1000.90 1000.74 1000.31 1000.07 999.59 999.60 999.35 999.94 1000.94 1002.12 1003.56 1003.92 1003.96 1003.69 1003.26 1002.88 1002.46 1001.87 1002.09 1002.92 1003.58 1004.16 1004.34 1005.25 1006.10 1006.87 1007.56 1008.15 1008.79 1009.46 1009.90 1010.41 1010.86 1011.13 1011.69
1005.50 1005.09 1004.82 1003.80 1003.52 1002.81 1002.00 1001.40 1000.94 1000.72 1000.64 1000.52 1000.21 1000.20 1000.39 1000.61 1000.94 1001.96 1003.02 1004.31 1004.73 1004.91 1004.53 1003.98 1003.27 1002.72 1002.29 1001.59 1002.20 1003.07 1003.84 1004.29 1004.89 1005.65 1006.50 1007.18 1007.94 1008.57 1009.14 1009.63 1010.14 1010.52 1010.88 1011.49
1005.45 1005.70 1005.63 1004.74 1004.46 1002.92 1001.82 1001.74 1002.32 1002.28 1002.04 1001.93 1001.76 1002.08 1002.60 1002.96 1003.17 1003.45 1003.96 1005.06 1005.41 1005.28 1004.98 1004.51 1003.72 1003.11 1002.67 1001.45 1001.19 1002.38 1003.25 1004.05 1004.53 1005.23 1006.08 1006.78 1007.49 1008.13 1008.88 1009.22 1009.53 1009.97 1010.36 1010.74
1005.57 1005.83 1005.64 1005.18 1004.10 1002.96 1002.35 1002.28 1002.65 1002.79 1003.04 1003.68 1004.20 1004.39 1004.46 1004.58 1004.66 1004.17 1004.70 1005.35 1005.66 1005.53 1005.00 1004.53 1004.02 1003.31 1002.65 1002.00 1001.28 1001.62 1002.94 1003.45 1004.11 1004.89 1005.62 1006.26 1006.93 1007.42 1008.13 1008.80 1009.21 1009.61 1010.04 1010.29
1006.03 1006.01 1006.30 1005.55 1004.52 1003.32 1002.98 1003.77 1004.66 1004.75 1004.61 1005.45 1005.91 1005.85 1006.00 1006.08 1005.21 1005.04 1005.77 1005.51 1005.45 1005.46 1005.24 1004.56 1004.00 1003.20 1002.53 1001.72 1001.91 1001.60 1002.54 1003.03 1003.66 1004.44 1005.18 1005.84 1006.46 1007.06 1007.43 1007.98 1008.72 1009.21 1009.52 1009.89
1005.83 1006.46 1006.07 1005.48 1005.02 1004.58 1004.39 1005.01 1005.46 1005.80 1006.45 1007.01 1007.12 1007.19 1007.08 1006.80 1006.54 1005.98 1005.93 1005.64 1005.44 1005.36 1005.18 1004.62 1003.85 1003.09 1002.71 1002.13 1001.74 1001.67 1002.28 1002.77 1003.53 1004.25 1004.82 1005.46 1006.14 1006.47 1006.98 1007.51 1007.98 1008.81 1009.22 1009.69
1006.72 1006.43 1005.74 1005.42 1005.17 1005.12 1005.93 1006.06 1006.53 1006.94 1007.38 1007.72 1007.90 1007.84 1007.56 1007.38 1007.04 1006.65 1006.31 1005.76 1005.35 1005.14 1004.89 1004.46 1003.62 1003.16 1002.90 1002.68 1001.71 1001.81 1001.85 1002.54 1003.25 1003.85 1004.31 1005.01 1005.66 1006.14 1006.14 1006.92 1007.75 1008.23 1008.65 1009.03
1007.69 1007.79 1008.00 1008.11 1006.74 1006.88 1007.08 1007.51 1007.60 1007.78 1008.00 1008.13 1008.19 1008.04 1007.76 1007.42 1006.96 1006.65 1006.25 1005.72 1005.24 1004.86 1004.66 1004.52 1003.66 1003.07 1002.91 1002.73 1002.92 1001.83 1001.82 1002.32 1002.72 1003.29 1003.79 1004.48 1005.00 1005.17 1005.51 1006.60 1007.33 1008.14 1008.54 1008.51
1007.76 1008.66 1008.91 1009.39 1008.62 1008.28 1008.39 1008.46 1008.49 1008.80 1008.72 1008.38 1008.20 1007.98 1007.69 1007.11 1006.73 1006.22 1005.86 1005.36 1004.90 1004.52 1004.43 1004.21 1003.76 1003.08 1002.86 1002.78 1002.67 1002.66 1001.84 1002.07 1002.39 1002.81 1003.31 1003.95 1004.36 1004.62 1005.32 1006.20 1006.84 1007.37 1008.05 1008.54
1009.01 1009.61 1009.98 1009.72 1009.76 1009.70 1009.20 1009.18 1009.15 1008.99 1009.32 1009.00 1008.52 1008.46 1007.98 1007.03 1006.29 1005.94 1005.51 1005.01 1004.67 1004.26 1004.09 1003.97 1003.81 1003.29 1002.96 1002.61 1002.78 1002.76 1002.23 1001.79 1002.04 1002.21 1002.61 1003.27 1003.62 1004.25 1004.90 1005.73 1006.81 1007.34 1007.34 1007.75
1010.51 1011.32 1011.85 1011.34 1011.01 1010.95 1010.15 1009.37 1009.20 1008.84 1008.99 1008.91 1008.39 1008.12 1007.93 1007.28 1006.40 1005.58 1005.13 1004.60 1004.24 1003.82 1003.67 1003.66 1003.59 1003.31 1002.88 1002.62 1002.99 1003.21 1002.37 1002.05 1002.19 1002.76 1002.87 1003.09 1003.11 1003.88 1004.48 1005.24 1006.97 1008.00 1007.62 1007.91
Wind_Speed
16 11 13 13 7 12 9 12 11 8 6 11 12 15 14 12 11 10 12 14 16 18 18 17 17 15 13 13 13 13 10 10 9 9 8 7 7 7 1 4 5 8 10 9
14 12 13 15 6 10 13 15 13 7 6 14 17 13 18 8 7 10 13 14 14 16 18 18 19 16 16 14 14 14 12 11 10 9 6 6 6 8 8 7 9 10 9 10
12 15 5 9 9 14 14 15 15 10 13 20 9 14 2 9 6 6 9 12 13 16 17 20 19 17 16 15 15 15 14 13 12 10 7 4 2 5 6 7 8 10 11 9
12 10 11 11 13 12 15 8 7 10 15 13 18 13 14 7 5 11 8 11 13 15 17 19 21 19 18 17 15 15 14 14 12 11 8 9 8 8 8 8 8 10 10 10
7 6 9 12 13 12 13 5 7 13 16 17 18 10 9 11 7 9 7 6 4 12 18 18 19 21 20 17 17 14 14 12 10 9 10 7 8 7 7 8 9 8 9 9
15 6 7 11 9 5 12 11 14 19 16 14 14 3 9 5 6 6 2 5 1 6 14 17 18 18 15 17 15 16 16 14 13 10 10 9 10 9 7 9 9 8 10 8
18 18 16 10 13 13 14 14 12 13 12 12 9 4 9 6 9 5 4 5 6 7 12 15 17 17 17 17 17 15 17 15 14 12 10 9 9 10 10 8 9 12 11 9
10 8 7 6 12 15 10 14 12 12 11 13 8 4 8 5 8 3 5 5 5 9 11 14 16 15 16 16 17 16 17 15 15 13 11 9 10 6 7 11 7 10 8 7
10 8 11 5 6 10 15 10 13 17 12 14 8 6 6 8 9 6 8 4 6 7 11 14 15 15 16 16 17 17 17 16 15 14 11 11 10 9 8 11 7 9 6 7
10 10 13 3 2 13 16 14 10 10 13 13 10 6 2 7 11 6 15 12 6 4 7 12 13 14 15 17 17 16 17 15 14 14 12 11 12 11 8 9 10 9 9 3
13 13 13 9 11 15 9 14 17 16 12 15 12 1 7 9 5 6 16 12 12 13 4 8 11 13 14 16 17 18 16 16 15 14 13 13 13 13 10 10 9 8 8 9
5 10 14 19 18 18 12 17 18 14 12 11 13 12 8 8 2 13 14 10 13 11 6 6 10 13 14 14 16 17 18 16 16 14 13 13 13 13 14 12 13 11 9 9
10 8 13 16 17 21 12 14 16 20 19 19 16 11 13 5 15 14 10 11 11 11 12 5 7 10 13 15 13 15 15 16 15 15 15 14 15 14 13 13 13 13 11 10
6 14 18 15 18 19 13 15 13 15 13 16 15 17 18 7 8 13 11 12 12 10 10 8 7 8 10 12 14 12 16 16 15 15 15 14 15 14 14 13 11 13 10 10
11 15 17 18 18 18 18 20 19 20 20 23 21 21 19 16 13 8 7 10 11 10 11 9 10 8 11 11 12 14 15 16 17 14 15 12 12 12 11 11 12 11 12 11
12 14 13 16 18 19 22 21 22 22 21 22 22 22 21 20 15 9 9 10 12 11 10 11 8 10 11 12 13 13 13 15 15 15 14 13 13 12 12 11 11 11 12 11
14 13 14 17 16 17 14 19 20 17 17 15 17 14 11 12 7 9 8 7 9 10 12 13 11 9 11 10 12 14 14 15 15 14 14 14 13 13 12 12 11 12 12 11
15 14 12 14 15 20 19 6 5 11 11 13 8 11 10 11 11 8 6 5 9 11 11 12 12 10 11 13 12 15 15 13 14 14 15 14 15 14 13 13 13 12 11 11
13 13 13 15 15 16 17 4 8 8 13 7 7 9 11 11 12 16 9 5 8 12 12 11 13 14 13 12 13 11 14 15 15 16 15 15 14 14 15 14 13 12 11 10
10 8 11 14 16 17 10 10 6 6 10 8 8 9 10 10 11 12 11 12 10 11 13 14 14 13 14 8 12 10 13 13 15 15 15 14 15 14 14 13 11 11 10 9
9 8 13 12 15 15 11 8 4 11 6 9 10 12 14 12 11 19 16 14 12 11 14 15 14 13 11 15 8 12 12 13 12 13 14 14 14 14 13 12 11 11 7 7
11 11 11 12 14 17 13 8 7 12 12 12 15 16 16 15 17 14 17 16 15 13 14 16 13 13 12 13 10 12 12 12 12 13 13 14 14 12 13 14 11 11 9 9
8 6 9 10 12 13 17 14 14 15 15 17 18 18 17 19 19 17 17 18 15 13 12 14 15 13 13 10 15 11 10 11 12 13 14 13 14 14 13 14 12 10 7 7
6 4 9 12 10 15 21 20 16 15 15 15 15 18 18 19 20 19 18 16 14 13 13 12 15 14 13 11 10 16 11 12 12 13 14 14 16 14 14 12 11 10 10 9
12 10 13 17 14 18 17 14 15 14 14 20 17 17 20 21 19 18 17 18 14 14 11 11 13 12 13 14 10 13 14 10 13 15 16 16 15 16 14 12 9 9 10 10
8 7 6 11 14 12 17 21 18 19 15 17 19 13 16 19 21 19 17 17 14 15 11 12 12 12 12 12 13 10 12 8 14 14 13 12 14 14 13 12 9 11 11 9
Wind_Direction
224 250 241 249 292 355 317 282 288 299 6 271 304 288 295 277 234 206 233 213 210 203 196 195 189 185 188 176 178 176 199 177 173 164 185 200 181 204 259 277 245 195 158 187
246 234 250 279 317 284 277 279 275 291 331 306 288 305 269 267 258 222 219 230 220 207 197 189 185 191 192 181 175 179 194 182 193 197 197 192 198 177 183 215 223 210 165 207
248 268 20 296 284 252 250 262 282 323 310 283 278 283 320 217 167 259 244 236 231 204 202 184 186 189 188 187 180 181 190 185 200 236 156 180 196 161 183 201 209 210 175 185
256 270 274 239 251 263 271 270 328 292 296 306 310 291 266 108 228 223 240 221 208 210 199 191 187 190 188 197 181 183 187 192 196 208 183 191 206 184 203 188 199 178 180 190
241 228 234 241 254 262 259 257 274 280 282 283 285 270 346 154 200 31 15 15 264 195 188 203 191 183 192 188 179 183 182 182 214 197 255 186 205 198 183 190 197 173 164 188
274 260 241 274 279 261 278 284 272 257 253 258 253 291 290 92 55 5 94 97 254 189 181 193 184 187 190 184 178 179 177 189 193 191 208 235 193 189 188 202 174 182 168 182
218 228 220 222 254 230 229 250 266 261 220 255 118 314 357 7 82 344 2 92 145 179 177 183 188 192 181 189 178 182 176 188 194 194 203 211 188 191 185 180 198 181 171 175
277 247 167 166 240 285 267 242 262 313 299 318 340 283 109 37 79 25 41 103 137 177 175 184 190 191 177 190 179 190 172 185 192 191 201 192 181 200 195 184 214 186 169 178
323 237 134 205 238 271 261 219 272 281 291 264 256 243 251 147 120 38 51 36 150 192 183 190 185 190 175 190 185 189 176 189 191 188 189 187 188 186 202 203 213 195 150 122
290 289 275 200 256 246 258 294 293 242 248 262 293 308 5 154 62 20 68 16 17 192 215 190 189 189 180 187 185 189 182 187 190 188 185 188 182 183 185 217 195 209 149 88
288 289 276 283 234 262 197 229 227 252 285 305 288 81 92 204 92 30 63 25 24 346 204 218 200 183 186 190 190 182 181 183 187 193 184 185 183 183 177 191 210 203 188 179
323 313 294 294 302 298 278 293 292 286 262 236 270 283 337 146 350 81 59 40 13 1 326 275 201 191 189 198 198 189 174 190 192 191 178 184 189 185 182 190 195 196 195 192
2 268 285 278 251 221 227 259 259 255 267 271 284 280 133 216 98 65 33 25 7 2 1 310 274 197 195 190 203 197 186 184 193 190 184 185 187 191 192 194 186 190 200 182
310 271 269 280 300 318 296 292 282 289 271 280 266 269 285 120 65 346 16 3 354 0 356 350 291 204 209 202 195 206 195 184 192 190 189 185 190 188 195 188 198 188 181 194
255 271 278 281 284 287 288 284 281 275 276 280 294 295 299 303 349 112 71 2 347 356 351 351 329 293 186 202 207 205 209 186 188 190 193 189 188 189 194 188 187 198 185 197
256 266 275 277 278 272 272 271 266 264 267 268 272 275 290 299 306 344 24 11 342 350 346 342 343 313 274 202 206 209 211 199 192 187 193 186 184 185 187 191 185 199 196 198
279 280 278 275 292 289 278 263 264 268 262 286 273 289 314 305 337 355 356 356 343 349 344 336 333 325 295 235 204 212 207 211 193 188 193 186 180 187 189 190 193 197 206 192
261 255 271 273 282 268 269 31 338 302 302 285 317 350 13 352 343 328 86 10 334 339 343 337 327 330 309 276 221 194 209 207 196 193 191 186 182 185 189 191 197 199 203 205
255 261 265 268 259 267 276 324 339 331 307 38 347 340 342 344 320 266 82 13 333 328 331 333 328 320 312 293 286 184 210 195 200 198 193 192 186 183 182 192 197 201 210 207
264 260 260 257 272 273 309 90 22 336 269 43 350 337 341 335 280 91 349 335 329 328 324 322 326 314 313 292 266 196 203 199 199 198 196 191 183 186 184 183 191 199 199 209
227 228 255 252 257 267 35 16 340 248 354 346 338 330 320 309 320 320 320 322 319 320 317 319 315 316 327 314 258 239 199 212 197 197 192 186 188 188 183 180 174 189 167 191
280 282 270 263 267 262 46 312 306 350 325 317 315 306 301 299 295 293 305 308 311 309 311 311 309 317 319 310 282 250 212 207 190 199 190 181 180 189 187 177 162 167 175 186
265 302 329 313 324 325 329 315 315 316 309 300 297 299 299 296 292 294 294 293 299 296 302 301 297 309 312 312 328 254 225 210 195 193 186 179 176 192 173 183 183 193 182 168
299 313 268 300 284 313 315 306 317 330 313 303 289 287 291 289 289 285 282 283 290 294 294 295 294 299 311 307 305 308 241 210 203 188 182 175 182 188 178 186 183 183 184 201
293 324 298 281 291 293 283 299 296 290 298 285 292 304 301 301 290 283 283 277 277 280 283 292 290 298 305 303 305 291 284 207 202 191 178 179 188 191 180 192 196 204 216 196
15 356 311 296 304 313 307 291 291 293 290 290 287 271 281 287 285 281 272 273 274 274 282 290 286 289 295 320 336 345 335 240 211 212 190 184 189 186 180 186 167 47 66 67